Terminal Aerodrome Forecast
Issued by NWS Wilmington, NC

Home | Current Version | Previous Version | Text Only | Print | Product List | Glossary On
Versions: 1 2 3 4 5 6 7 8 9 10 11 12 13 14 15 16 17
000
FTUS42 KILM 041352 AAA
TAFLBT
TAF AMD
KLBT 041352Z 0414/0512 14005KT P6SM VCSH SCT025 BKN250
      TEMPO 0414/0417 4SM SHRA BKN025
     FM041900 16008KT P6SM VCTS FEW030CB BKN050
     FM042300 19004KT P6SM BKN150=

USA.gov is the U.S. government's official web portal to all federal, state and local government web resources and services.